• în România
  • Lista ţărilor
  • Pe 7 zile
  • Temperatura apei
  • Hartă satelitară
  • Meteo pe hartă
  • Widget-uri
  • user-avatar
    Intrare

    Meteo pe oră la Ondjiwa

    Astăzi, 28 Aprilie, Vineri

    Timp Temperatura Precipitaţii Vânt Presiune Umiditate
    00:00 +21°C° 0 mm 3 m/s 669 mmHg 52%
    01:00 +20°C° 0 mm 3 m/s 669 mmHg 52%
    02:00 +20°C° 0 mm 3 m/s 669 mmHg 55%
    03:00 +19°C° 0 mm 3 m/s 669 mmHg 57%
    04:00 +19°C° 0 mm 3 m/s 668 mmHg 59%
    05:00 +19°C° 0 mm 3 m/s 669 mmHg 60%
    06:00 +19°C° 0 mm 3 m/s 669 mmHg 61%
    07:00 +19°C° 0 mm 4 m/s 669 mmHg 63%
    08:00 +22°C° 0 mm 4 m/s 670 mmHg 55%
    09:00 +26°C° 0 mm 5 m/s 671 mmHg 46%
    10:00 +29°C° 0 mm 6 m/s 671 mmHg 38%
    11:00 +30°C° 0 mm 5 m/s 671 mmHg 35%
    12:00 +32°C° 0 mm 5 m/s 671 mmHg 31%
    13:00 +34°C° 0 mm 4 m/s 670 mmHg 27%
    14:00 +33°C° 0 mm 4 m/s 670 mmHg 28%
    15:00 +33°C° 0 mm 4 m/s 669 mmHg 28%
    16:00 +33°C° 0 mm 4 m/s 669 mmHg 28%
    17:00 +30°C° 0 mm 3 m/s 669 mmHg 33%
    18:00 +27°C° 0 mm 3 m/s 669 mmHg 39%
    19:00 +25°C° 0 mm 3 m/s 669 mmHg 44%
    20:00 +25°C° 0 mm 3 m/s 669 mmHg 46%
    21:00 +24°C° 0 mm 3 m/s 669 mmHg 47%
    22:00 +22°C° 0 mm 3 m/s 670 mmHg 49%
    23:00 +22°C° 0 mm 3 m/s 670 mmHg 51%

    Mâine, 29 Aprilie, Sâmbătă

    Timp Temperatura Precipitaţii Vânt Presiune Umiditate
    00:00 +22°C° 0 mm 4 m/s 670 mmHg 53%
    01:00 +21°C° 0 mm 4 m/s 670 mmHg 56%
    02:00 +21°C° 0 mm 4 m/s 669 mmHg 58%
    03:00 +20°C° 0 mm 4 m/s 669 mmHg 61%
    04:00 +19°C° 0 mm 3 m/s 669 mmHg 64%
    05:00 +19°C° 0 mm 3 m/s 670 mmHg 66%
    06:00 +19°C° 0 mm 3 m/s 670 mmHg 67%
    07:00 +19°C° 0 mm 3 m/s 671 mmHg 69%
    08:00 +21°C° 0 mm 4 m/s 671 mmHg 60%
    09:00 +25°C° 0 mm 4 m/s 672 mmHg 51%
    10:00 +27°C° 0 mm 5 m/s 673 mmHg 43%
    11:00 +29°C° 0 mm 5 m/s 672 mmHg 38%
    12:00 +30°C° 0 mm 5 m/s 671 mmHg 34%
    13:00 +33°C° 0 mm 4 m/s 671 mmHg 30%
    14:00 +32°C° 0 mm 4 m/s 670 mmHg 30%
    15:00 +32°C° 0 mm 4 m/s 670 mmHg 29%
    16:00 +31°C° 0 mm 3 m/s 669 mmHg 29%
    17:00 +29°C° 0 mm 3 m/s 669 mmHg 34%
    18:00 +27°C° 0 mm 3 m/s 669 mmHg 39%
    19:00 +25°C° 0 mm 2 m/s 669 mmHg 44%
    20:00 +24°C° 0 mm 3 m/s 669 mmHg 46%
    21:00 +22°C° 0 mm 3 m/s 669 mmHg 47%
    22:00 +22°C° 0 mm 3 m/s 670 mmHg 48%
    23:00 +21°C° 0 mm 3 m/s 670 mmHg 51%

    Poimâine, 30 Aprilie, Duminică

    Timp Temperatura Precipitaţii Vânt Presiune Umiditate
    00:00 +21°C° 0 mm 4 m/s 670 mmHg 53%
    01:00 +20°C° 0 mm 4 m/s 669 mmHg 55%
    02:00 +20°C° 0 mm 4 m/s 669 mmHg 58%
    03:00 +19°C° 0 mm 4 m/s 669 mmHg 61%
    04:00 +19°C° 0 mm 4 m/s 669 mmHg 64%
    05:00 +19°C° 0 mm 4 m/s 669 mmHg 64%
    06:00 +19°C° 0 mm 4 m/s 670 mmHg 65%
    07:00 +19°C° 0 mm 4 m/s 671 mmHg 65%
    08:00 +21°C° 0 mm 4 m/s 671 mmHg 56%
    09:00 +25°C° 0 mm 5 m/s 672 mmHg 47%
    10:00 +27°C° 0 mm 6 m/s 673 mmHg 37%
    11:00 +28°C° 0 mm 5 m/s 672 mmHg 34%
    12:00 +30°C° 0 mm 5 m/s 671 mmHg 30%
    13:00 +32°C° 0 mm 4 m/s 671 mmHg 26%
    14:00 +32°C° 0 mm 4 m/s 670 mmHg 26%
    15:00 +32°C° 0 mm 4 m/s 670 mmHg 25%
    16:00 +30°C° 0 mm 4 m/s 669 mmHg 24%
    17:00 +28°C° 0 mm 3 m/s 669 mmHg 29%
    18:00 +26°C° 0 mm 3 m/s 669 mmHg 33%
    19:00 +23°C° 0 mm 2 m/s 669 mmHg 37%
    20:00 +22°C° 0 mm 3 m/s 669 mmHg 39%
    21:00 +21°C° 0 mm 3 m/s 669 mmHg 40%
    22:00 +20°C° 0 mm 3 m/s 670 mmHg 42%
    23:00 +20°C° 0 mm 3 m/s 669 mmHg 44%

    1 Mai, Luni

    Timp Temperatura Precipitaţii Vânt Presiune Umiditate
    00:00 +19°C° 0 mm 3 m/s 669 mmHg 46%
    01:00 +18°C° 0 mm 3 m/s 669 mmHg 47%
    02:00 +18°C° 0 mm 3 m/s 669 mmHg 49%
    03:00 +17°C° 0 mm 3 m/s 669 mmHg 50%
    04:00 +17°C° 0 mm 3 m/s 669 mmHg 52%
    05:00 +17°C° 0 mm 3 m/s 669 mmHg 53%
    06:00 +17°C° 0 mm 3 m/s 670 mmHg 54%
    07:00 +17°C° 0 mm 3 m/s 670 mmHg 55%
    08:00 +20°C° 0 mm 4 m/s 671 mmHg 48%
    09:00 +23°C° 0 mm 5 m/s 671 mmHg 40%
    10:00 +26°C° 0 mm 5 m/s 672 mmHg 33%
    11:00 +28°C° 0 mm 5 m/s 671 mmHg 29%
    12:00 +29°C° 0 mm 4 m/s 671 mmHg 25%
    13:00 +30°C° 0 mm 4 m/s 670 mmHg 21%
    14:00 +30°C° 0 mm 4 m/s 670 mmHg 21%
    15:00 +30°C° 0 mm 4 m/s 669 mmHg 21%
    16:00 +30°C° 0 mm 3 m/s 669 mmHg 21%
    17:00 +27°C° 0 mm 3 m/s 669 mmHg 26%
    18:00 +25°C° 0 mm 3 m/s 669 mmHg 31%
    19:00 +22°C° 0 mm 3 m/s 669 mmHg 36%
    20:00 +21°C° 0 mm 3 m/s 669 mmHg 38%
    21:00 +20°C° 0 mm 3 m/s 669 mmHg 40%
    22:00 +19°C° 0 mm 3 m/s 670 mmHg 42%
    23:00 +19°C° 0 mm 3 m/s 669 mmHg 45%

    2 Mai, Marţi

    Timp Temperatura Precipitaţii Vânt Presiune Umiditate
    00:00 +18°C° 0 mm 3 m/s 669 mmHg 47%
    01:00 +18°C° 0 mm 3 m/s 669 mmHg 49%
    02:00 +17°C° 0 mm 3 m/s 669 mmHg 52%
    03:00 +17°C° 0 mm 3 m/s 669 mmHg 55%
    04:00 +16°C° 0 mm 3 m/s 669 mmHg 58%
    05:00 +16°C° 0 mm 3 m/s 669 mmHg 60%
    06:00 +16°C° 0 mm 3 m/s 669 mmHg 61%
    07:00 +16°C° 0 mm 3 m/s 670 mmHg 63%
    08:00 +19°C° 0 mm 4 m/s 670 mmHg 53%
    09:00 +22°C° 0 mm 5 m/s 671 mmHg 44%
    10:00 +26°C° 0 mm 6 m/s 671 mmHg 35%
    11:00 +28°C° 0 mm 6 m/s 671 mmHg 32%
    12:00 +29°C° 0 mm 5 m/s 670 mmHg 29%
    13:00 +30°C° 0 mm 5 m/s 669 mmHg 26%
    14:00 +30°C° 0 mm 5 m/s 669 mmHg 27%
    15:00 +29°C° 0 mm 4 m/s 669 mmHg 27%
    16:00 +29°C° 0 mm 4 m/s 668 mmHg 28%
    17:00 +27°C° 0 mm 4 m/s 669 mmHg 33%
    18:00 +25°C° 0 mm 3 m/s 669 mmHg 39%
    19:00 +22°C° 0 mm 3 m/s 669 mmHg 45%
    20:00 +21°C° 0 mm 3 m/s 669 mmHg 47%
    21:00 +21°C° 0 mm 3 m/s 669 mmHg 49%
    22:00 +20°C° 0 mm 3 m/s 669 mmHg 52%
    23:00 +19°C° 0 mm 3 m/s 669 mmHg 54%

    3 Mai, Miercuri

    Timp Temperatura Precipitaţii Vânt Presiune Umiditate
    00:00 +19°C° 0 mm 3 m/s 669 mmHg 57%
    01:00 +18°C° 0 mm 3 m/s 669 mmHg 59%
    02:00 +18°C° 0 mm 3 m/s 669 mmHg 61%
    03:00 +17°C° 0 mm 3 m/s 669 mmHg 62%
    04:00 +17°C° 0 mm 3 m/s 668 mmHg 64%
    05:00 +17°C° 0 mm 3 m/s 669 mmHg 64%
    06:00 +17°C° 0 mm 3 m/s 669 mmHg 63%
    07:00 +17°C° 0 mm 3 m/s 670 mmHg 63%
    08:00 +20°C° 0 mm 4 m/s 670 mmHg 53%
    09:00 +23°C° 0 mm 5 m/s 671 mmHg 43%
    10:00 +27°C° 0 mm 6 m/s 671 mmHg 33%
    11:00 +28°C° 0 mm 6 m/s 671 mmHg 31%
    12:00 +29°C° 0 mm 5 m/s 670 mmHg 29%
    13:00 +30°C° 0 mm 5 m/s 670 mmHg 27%
    14:00 +30°C° 0 mm 5 m/s 669 mmHg 28%
    15:00 +30°C° 0 mm 5 m/s 669 mmHg 28%
    16:00 +29°C° 0 mm 5 m/s 669 mmHg 29%
    17:00 +27°C° 0 mm 4 m/s 669 mmHg 35%
    18:00 +25°C° 0 mm 3 m/s 669 mmHg 40%
    19:00 +22°C° 0 mm 3 m/s 669 mmHg 46%
    20:00 +21°C° 0 mm 3 m/s 669 mmHg 48%
    21:00 +21°C° 0 mm 3 m/s 669 mmHg 50%
    22:00 +20°C° 0 mm 3 m/s 669 mmHg 52%
    23:00 +20°C° 0 mm 3 m/s 669 mmHg 54%
    Arată mai mult